This is the latest recevied weather packets stored in our database for station/object WX1NWA. If no packets are shown the sender has not sent any weather packets the latest 10 day(s).
| Time | Temp. | Humidity | Pressure | Rain* | Wind** | Luminosity | Snow |
|---|---|---|---|---|---|---|---|
| 1777924373 | 22.78° C | 56% | 1012.1 hPa | 0 mm | - | 678 W/m² | - |
| 1777924071 | 23.33° C | 56% | 1012.1 hPa | 0 mm | - | 648 W/m² | - |
| 1777923767 | 23.33° C | 56% | 1012.3 hPa | 0 mm | - | 658 W/m² | - |
| 1777923463 | 22.78° C | 55% | 1012.3 hPa | 0 mm | - | 645 W/m² | - |
| 1777923161 | 23.33° C | 55% | 1012.2 hPa | 0 mm | - | 633 W/m² | - |
| 1777922859 | 23.89° C | 58% | 1012.5 hPa | 0 mm | - | 648 W/m² | - |
| 1777922557 | 22.78° C | 56% | 1012.4 hPa | 0 mm | - | 669 W/m² | - |
| 1777922255 | 22.78° C | 56% | 1012.4 hPa | 0 mm | - | 656 W/m² | - |
| 1777921952 | 22.78° C | 57% | 1012.9 hPa | 0 mm | - | 672 W/m² | - |
| 1777921647 | 22.78° C | 55% | 1013 hPa | 0 mm | - | 693 W/m² | - |
| 1777921344 | 22.78° C | 58% | 1012.8 hPa | 0 mm | - | 693 W/m² | - |
| 1777921040 | 22.78° C | 56% | 1012.7 hPa | 0 mm | - | 680 W/m² | - |
| 1777920737 | 23.33° C | 56% | 1012.8 hPa | 0 mm | - | 673 W/m² | - |
| 1777920433 | 22.78° C | 55% | 1012.9 hPa | 0 mm | - | 682 W/m² | - |
| 1777920129 | 22.78° C | 55% | 1013.1 hPa | 0 mm | - | 721 W/m² | - |
| 1777919825 | 22.22° C | 59% | 1012.8 hPa | 0 mm | - | 730 W/m² | - |
| 1777919522 | 21.67° C | 58% | 1012.9 hPa | 0 mm | - | 457 W/m² | - |
| 1777919220 | 21.67° C | 58% | 1013.3 hPa | 0 mm | - | 727 W/m² | - |
| 1777918917 | 22.22° C | 59% | 1013.2 hPa | 0 mm | - | 700 W/m² | - |
| 1777918615 | 22.22° C | 59% | 1013.4 hPa | 0 mm | - | 716 W/m² | - |
| 1777918312 | 21.67° C | 60% | 1013.2 hPa | 0 mm | - | 684 W/m² | - |
| 1777918011 | 22.78° C | 57% | 1013.2 hPa | 0 mm | - | 684 W/m² | - |
| 1777917709 | 22.22° C | 57% | 1013.1 hPa | 0 mm | - | 692 W/m² | - |
| 1777917406 | 21.67° C | 58% | 1013.3 hPa | 0 mm | - | 701 W/m² | - |
| 1777917103 | 21.67° C | 57% | 1013.2 hPa | 0 mm | - | 731 W/m² | - |
* Rain latest hour (hover to see other rain measurements)
** Current wind speed in m/s (hover to see current wind gust speed)